Погода в Песчаных Ковалях

Россия / Республика Татарстан     55°37′41″N   49°08′46″E
темп.,
°C
ветер,
м/с
пор.,
м/с
влажн.,
%
обл.,
%
осадки,
мм/ч
давл.,
гПа
погр.,
м
18 мая, вт
вт1800:00+18с4878100 3.6 1017144
03:00+17св498377 3.6 1017174
06:00+19в487779 0.0 1017217
09:00+24всв235630 0.1 1017517
12:00+26в455297 0.0 1017865
15:00+26в455329 0.0 1017709
18:00+25всв475934 0.0 1017276
21:00+19в4126958 0.1 1017243
19 мая, ср
ср1900:00+18в5136232 0.0 1018292
03:00+15в411725 0.0 1018251
06:00+17в511735 0.0 1019366
09:00+21вюв68565 0.0 1019763
12:00+24вюв78465 0.0 10181243
15:00+25вюв78434 0.0 10181451
18:00+23вюв49571 0.0 1017428
21:00+19вюв614670 0.0 1018310
20 мая, чт
чт2000:00+16вюв411716 0.0 1018215
03:00+15вюв412752 0.0 1018257
06:00+17юв5136810 0.0 1018413
09:00+21юв7105348 0.0 1018718
12:00+24юв79444 0.0 10171604
15:00+24юв794316 0.0 10161814
18:00+21юв5115215 0.0 1015517
21:00+16вюв412610 0.0 1015247
21 мая, пт
пт2100:00+14юв411690 0.0 1014219
03:00+13вюв310700 0.0 1014174
06:00+15юв4106687 0.0 1014285
09:00+20юв56514 0.0 1013624
12:00+22ююв5548100 0.0 10121352
15:00+21ююв4558100 0.1 10121069
18:00+18ю357574 0.8 1012347
21:00+15зюз39862 0.8 1013216
22 мая, сб
сб2200:00+14зюз511890 0.0 1014328
03:00+12зюз410915 0.0 1016286
06:00+13зюз598299 0.0 1017443
09:00+17зюз566776 0.0 1018884
12:00+20з5656100 0.0 10191501
15:00+20з5657100 0.1 10201396
18:00+18з356662 0.0 1020397
21:00+14зюз228654 0.0 102138